Tracking 19564 objects as of 19-Mar-2019
HD Live streaming from Space Station
objects crossing your sky now

TDRS 10

Track TDRS 10 now!
TDRS 10 is classified as:


NORAD ID: 27566
Int'l Code: 2002-055A
Perigee: 35,748.0 km
Apogee: 35,835.6 km
Inclination: 6.1 °
Period: 1,436.0 minutes
Semi major axis: 42162 km
RCS: 5.0118 m2 (large)
Launch date: December 5, 2002
Source: United States (US)
Launch site: AIR FORCE EASTERN TEST RANGE (AFETR)

Tracking and communications with space shuttle, other missions.
aabbcc
Your satellite tracking list
Your tracking list is empty




NASA's NSSDC Master Catalog

Two Line Element Set (TLE):
1 27566U 02055A   19077.10275524  .00000077  00000-0  00000+0 0  9991
2 27566   6.1237  55.6396 0010393 270.0168  75.6992  1.00278766 59673
Source of the keplerian elements: AFSPC